owner,sensor,date,latitude,longitude,vertical_datum,wind_speed,wind_to_direction,wind_speed_of_gust,qcFlag 
TABS,ioos:station:wmo:42046:1,2012-03-01T00:00:00Z,27.8903,-94.0367,4.0,3.187789203,119.2993611,3.59,'11111222,11111222,11111222' 
TABS,ioos:station:wmo:42046:1,2012-03-01T00:30:00Z,27.8903,-94.0367,4.0,3.201312231,122.4989909,3.78,'11111222,11111222,11111222' 
TABS,ioos:station:wmo:42046:1,2012-03-01T01:00:00Z,27.8903,-94.0367,4.0,4.646568626,140.589433,5.91,'11111222,11111222,11111222' 
TABS,ioos:station:wmo:42046:1,2012-03-01T01:30:00Z,27.8903,-94.0367,4.0,2.722149886,156.1660033,3.65,'11111222,11111222,11111222' 
TABS,ioos:station:wmo:42046:1,2012-03-01T02:00:00Z,27.8903,-94.0367,4.0,3.429650128,150.6698265,3.98,'11111222,11111222,11111222' 
TABS,ioos:station:wmo:42046:1,2012-03-01T02:30:00Z,27.8903,-94.0367,4.0,3.896370106,159.0999961,4.44,'11111222,11111222,11111222' 
TABS,ioos:station:wmo:42046:1,2012-03-01T03:00:00Z,27.8903,-94.0367,4.0,3.997424171,155.9359058,4.7,'11111222,11111222,11111222' 
TABS,ioos:station:wmo:42046:1,2012-03-01T03:30:00Z,27.8903,-94.0367,4.0,4.162931659,155.8980323,4.64,'11111222,11111222,11111222' 
TABS,ioos:station:wmo:42046:1,2012-03-01T04:00:00Z,27.8903,-94.0367,4.0,5.145104469,161.8822412,5.71,'11111222,11111222,11111222' 
TABS,ioos:station:wmo:42046:1,2012-03-01T04:30:00Z,27.8903,-94.0367,4.0,5.963128374,164.6355757,6.94,'11111222,11111222,11111222' 
TABS,ioos:station:wmo:42046:1,2012-03-01T05:00:00Z,27.8903,-94.0367,4.0,4.916960443,168.0275603,5.67,'11111222,11111222,11111222' 
TABS,ioos:station:wmo:42046:1,2012-03-01T05:30:00Z,27.8903,-94.0367,4.0,6.667908218,166.7351205,7.96,'11111222,11111222,11111222' 
TABS,ioos:station:wmo:42046:1,2012-03-01T06:00:00Z,27.8903,-94.0367,4.0,6.971097475,167.6586429,8.25,'11111222,11111222,11111222' 
TABS,ioos:station:wmo:42046:1,2012-03-01T06:30:00Z,27.8903,-94.0367,4.0,6.928794989,175.7790971,8.59,'11111222,11111222,11111222' 
TABS,ioos:station:wmo:42046:1,2012-03-01T07:00:00Z,27.8903,-94.0367,4.0,6.017682278,188.6015752,7.37,'11111222,11111222,11111222' 
TABS,ioos:station:wmo:42046:1,2012-03-01T07:30:00Z,27.8903,-94.0367,4.0,7.050028369,180.1627509,8.03,'11111222,11111222,11111222' 
TABS,ioos:station:wmo:42046:1,2012-03-01T08:00:00Z,27.8903,-94.0367,4.0,7.519587755,190.6526053,8.99,'11111222,11111222,11111222' 
TABS,ioos:station:wmo:42046:1,2012-03-01T08:30:00Z,27.8903,-94.0367,4.0,7.133617596,184.6637905,8.96,'11111222,11111222,11111222' 
TABS,ioos:station:wmo:42046:1,2012-03-01T09:00:00Z,27.8903,-94.0367,4.0,6.866760517,186.6905333,7.71,'11111222,11111222,11111222' 
TABS,ioos:station:wmo:42046:1,2012-03-01T09:30:00Z,27.8903,-94.0367,4.0,7.258443359,182.7640614,8.37,'11111222,11111222,11111222' 
TABS,ioos:station:wmo:42046:1,2012-03-01T10:00:00Z,27.8903,-94.0367,4.0,7.680266922,203.5611866,10.41,'11111222,11111222,11111222' 
TABS,ioos:station:wmo:42046:1,2012-03-01T10:30:00Z,27.8903,-94.0367,4.0,5.04571105,182.7265151,6.13,'11111222,11111222,11111222' 
TABS,ioos:station:wmo:42046:1,2012-03-01T11:00:00Z,27.8903,-94.0367,4.0,6.100401626,179.3427483,6.95,'11111222,11111222,11111222' 
TABS,ioos:station:wmo:42046:1,2012-03-01T11:30:00Z,27.8903,-94.0367,4.0,4.988236161,171.2366031,5.71,'11111222,11111222,11111222' 
TABS,ioos:station:wmo:42046:1,2012-03-01T12:00:00Z,27.8903,-94.0367,4.0,4.193566501,160.7875836,5.27,'11111222,11111222,11111222' 
TABS,ioos:station:wmo:42046:1,2012-03-01T12:30:00Z,27.8903,-94.0367,4.0,4.154154547,158.6854819,4.74,'11111222,11111222,11111222' 
TABS,ioos:station:wmo:42046:1,2012-03-01T13:00:00Z,27.8903,-94.0367,4.0,2.430329196,179.0571574,3.15,'11111222,11111222,11111222' 
TABS,ioos:station:wmo:42046:1,2012-03-01T13:30:00Z,27.8903,-94.0367,4.0,3.180393057,179.0994098,4.4,'11111222,11111222,11111222' 
TABS,ioos:station:wmo:42046:1,2012-03-01T14:00:00Z,27.8903,-94.0367,4.0,3.879652046,174.2308509,4.92,'11111222,11111222,11111222' 
TABS,ioos:station:wmo:42046:1,2012-03-01T14:30:00Z,27.8903,-94.0367,4.0,4.29121195,161.5230825,5.27,'11111222,11111222,11111222' 
TABS,ioos:station:wmo:42046:1,2012-03-01T15:00:00Z,27.8903,-94.0367,4.0,6.378377537,161.8209604,7.74,'11111222,11111222,11111222' 
TABS,ioos:station:wmo:42046:1,2012-03-01T15:30:00Z,27.8903,-94.0367,4.0,6.647834234,167.4901286,7.51,'11111222,11111222,11111222' 
TABS,ioos:station:wmo:42046:1,2012-03-01T16:00:00Z,27.8903,-94.0367,4.0,6.245518393,158.982508,7.92,'11111222,11111222,11111222' 
TABS,ioos:station:wmo:42046:1,2012-03-01T16:30:00Z,27.8903,-94.0367,4.0,5.704875108,161.1841863,6.64,'11111222,11111222,11111222' 
TABS,ioos:station:wmo:42046:1,2012-03-01T17:00:00Z,27.8903,-94.0367,4.0,6.336884092,168.0696702,7.56,'11111222,11111222,11111222' 
TABS,ioos:station:wmo:42046:1,2012-03-01T17:30:00Z,27.8903,-94.0367,4.0,4.263566582,168.6375946,5.34,'11111222,11111222,11111222' 
TABS,ioos:station:wmo:42046:1,2012-03-01T18:00:00Z,27.8903,-94.0367,4.0,3.529107536,161.667985,4.15,'11111222,11111222,11111222' 
TABS,ioos:station:wmo:42046:1,2012-03-01T18:30:00Z,27.8903,-94.0367,4.0,3.641606788,157.7313813,4.16,'11111222,11111222,11111222' 
TABS,ioos:station:wmo:42046:1,2012-03-01T19:00:00Z,27.8903,-94.0367,4.0,3.393773711,162.6865116,4.06,'11111222,11111222,11111222' 
TABS,ioos:station:wmo:42046:1,2012-03-01T19:30:00Z,27.8903,-94.0367,4.0,2.763946454,162.0897354,3.13,'11111222,11111222,11111222' 
TABS,ioos:station:wmo:42046:1,2012-03-01T20:00:00Z,27.8903,-94.0367,4.0,2.585440001,157.0053653,3.09,'11111222,11111222,11111222' 
TABS,ioos:station:wmo:42046:1,2012-03-01T20:30:00Z,27.8903,-94.0367,4.0,3.299893938,156.2317005,3.76,'11111222,11111222,11111222' 
TABS,ioos:station:wmo:42046:1,2012-03-01T21:00:00Z,27.8903,-94.0367,4.0,3.748172888,154.3923389,4.83,'11111222,11111222,11111222' 
TABS,ioos:station:wmo:42046:1,2012-03-01T21:30:00Z,27.8903,-94.0367,4.0,3.421710099,148.2611439,3.94,'11111222,11111222,11111222' 
TABS,ioos:station:wmo:42046:1,2012-03-01T22:00:00Z,27.8903,-94.0367,4.0,3.247229588,150.277284,3.68,'11111222,11111222,11111222' 
TABS,ioos:station:wmo:42046:1,2012-03-01T22:30:00Z,27.8903,-94.0367,4.0,3.109614124,149.8897354,3.73,'11111222,11111222,11111222' 
TABS,ioos:station:wmo:42046:1,2012-03-01T23:00:00Z,27.8903,-94.0367,4.0,3.411231449,148.5468319,3.94,'11111222,11111222,11111222' 
TABS,ioos:station:wmo:42046:1,2012-03-01T23:30:00Z,27.8903,-94.0367,4.0,3.318568969,152.7402948,4.01,'11111222,11111222,11111222' 
TABS,ioos:station:wmo:42046:1,2012-03-02T00:00:00Z,27.8903,-94.0367,4.0,5.320009398,163.8477422,6.68,'11111222,11111222,11111222' 
TABS,ioos:station:wmo:42046:1,2012-03-02T00:30:00Z,27.8903,-94.0367,4.0,4.80355077,161.3012714,6.22,'11111222,11111222,11111222' 
TABS,ioos:station:wmo:42046:1,2012-03-02T01:00:00Z,27.8903,-94.0367,4.0,4.236271946,164.3892584,4.88,'11111222,11111222,11111222' 
TABS,ioos:station:wmo:42046:1,2012-03-02T01:30:00Z,27.8903,-94.0367,4.0,5.015107177,169.4297066,5.94,'11111222,11111222,11111222' 
TABS,ioos:station:wmo:42046:1,2012-03-02T02:00:00Z,27.8903,-94.0367,4.0,6.09679424,171.5112864,7.0,'11111222,11111222,11111222' 
TABS,ioos:station:wmo:42046:1,2012-03-02T02:30:00Z,27.8903,-94.0367,4.0,6.884911038,164.6721394,8.18,'11111222,11111222,11111222' 
TABS,ioos:station:wmo:42046:1,2012-03-02T03:00:00Z,27.8903,-94.0367,4.0,6.926940161,166.3050413,8.1,'11111222,11111222,11111222' 
TABS,ioos:station:wmo:42046:1,2012-03-02T03:30:00Z,27.8903,-94.0367,4.0,7.797602196,168.8344079,9.34,'11111222,11111222,11111222' 
TABS,ioos:station:wmo:42046:1,2012-03-02T04:00:00Z,27.8903,-94.0367,4.0,8.593299715,172.5113288,9.99,'11111222,11111222,11111222' 
TABS,ioos:station:wmo:42046:1,2012-03-02T04:30:00Z,27.8903,-94.0367,4.0,9.133367397,175.1011295,10.24,'11111222,11111222,11111222' 
TABS,ioos:station:wmo:42046:1,2012-03-02T05:00:00Z,27.8903,-94.0367,4.0,8.49246725,176.8952351,9.8,'11111222,11111222,11111222' 
TABS,ioos:station:wmo:42046:1,2012-03-02T05:30:00Z,27.8903,-94.0367,4.0,7.670417199,180.5977966,8.86,'11111222,11111222,11111222' 
TABS,ioos:station:wmo:42046:1,2012-03-02T06:00:00Z,27.8903,-94.0367,4.0,7.926695402,175.2966068,9.44,'11111222,11111222,11111222' 
TABS,ioos:station:wmo:42046:1,2012-03-02T06:30:00Z,27.8903,-94.0367,4.0,7.771357668,176.9021802,9.05,'11111222,11111222,11111222' 
TABS,ioos:station:wmo:42046:1,2012-03-02T07:00:00Z,27.8903,-94.0367,4.0,8.211972966,178.7442343,9.5,'11111222,11111222,11111222' 
TABS,ioos:station:wmo:42046:1,2012-03-02T07:30:00Z,27.8903,-94.0367,4.0,8.350724519,179.2454612,9.74,'11111222,11111222,11111222' 
TABS,ioos:station:wmo:42046:1,2012-03-02T08:00:00Z,27.8903,-94.0367,4.0,8.141381947,181.0559075,9.24,'11111222,11111222,11111222' 
TABS,ioos:station:wmo:42046:1,2012-03-02T08:30:00Z,27.8903,-94.0367,4.0,6.990286117,174.6647996,8.15,'11111222,11111222,11111222' 
TABS,ioos:station:wmo:42046:1,2012-03-02T09:00:00Z,27.8903,-94.0367,4.0,7.526280622,170.8257629,8.64,'11111222,11111222,11111222' 
TABS,ioos:station:wmo:42046:1,2012-03-02T09:30:00Z,27.8903,-94.0367,4.0,7.133372274,170.2342027,8.29,'11111222,11111222,11111222' 
TABS,ioos:station:wmo:42046:1,2012-03-02T10:00:00Z,27.8903,-94.0367,4.0,7.278358331,168.0264396,8.56,'11111222,11111222,11111222' 
TABS,ioos:station:wmo:42046:1,2012-03-02T10:30:00Z,27.8903,-94.0367,4.0,6.599401488,165.8797725,7.58,'11111222,11111222,11111222' 
TABS,ioos:station:wmo:42046:1,2012-03-02T11:00:00Z,27.8903,-94.0367,4.0,6.662649623,169.4492545,7.86,'11111222,11111222,11111222' 
TABS,ioos:station:wmo:42046:1,2012-03-02T11:30:00Z,27.8903,-94.0367,4.0,6.218979016,168.3108686,7.16,'11111222,11111222,11111222' 
TABS,ioos:station:wmo:42046:1,2012-03-02T12:00:00Z,27.8903,-94.0367,4.0,5.683044958,166.6731287,6.58,'11111222,11111222,11111222' 
TABS,ioos:station:wmo:42046:1,2012-03-02T12:30:00Z,27.8903,-94.0367,4.0,7.052091888,164.0325318,8.1,'11111222,11111222,11111222' 
TABS,ioos:station:wmo:42046:1,2012-03-02T13:00:00Z,27.8903,-94.0367,4.0,6.783723167,165.9230305,7.99,'11111222,11111222,11111222' 
TABS,ioos:station:wmo:42046:1,2012-03-02T13:30:00Z,27.8903,-94.0367,4.0,7.507289791,161.7583812,8.83,'11111222,11111222,11111222' 
TABS,ioos:station:wmo:42046:1,2012-03-02T14:00:00Z,27.8903,-94.0367,4.0,6.665620751,166.8187841,7.77,'11111222,11111222,11111222' 
TABS,ioos:station:wmo:42046:1,2012-03-02T14:30:00Z,27.8903,-94.0367,4.0,6.267128529,167.5606775,7.13,'11111222,11111222,11111222' 
TABS,ioos:station:wmo:42046:1,2012-03-02T15:00:00Z,27.8903,-94.0367,4.0,6.201693317,165.7175203,6.95,'11111222,11111222,11111222' 
TABS,ioos:station:wmo:42046:1,2012-03-02T15:30:00Z,27.8903,-94.0367,4.0,6.417631962,158.2320092,7.39,'11111222,11111222,11111222' 
TABS,ioos:station:wmo:42046:1,2012-03-02T16:00:00Z,27.8903,-94.0367,4.0,5.791588728,152.9927928,6.8,'11111222,11111222,11111222' 
TABS,ioos:station:wmo:42046:1,2012-03-02T16:30:00Z,27.8903,-94.0367,4.0,6.475198839,155.4537901,7.94,'11111222,11111222,11111222' 
TABS,ioos:station:wmo:42046:1,2012-03-02T17:00:00Z,27.8903,-94.0367,4.0,6.319058474,159.5291114,7.18,'11111222,11111222,11111222' 
TABS,ioos:station:wmo:42046:1,2012-03-02T17:30:00Z,27.8903,-94.0367,4.0,5.960436226,155.4131138,7.05,'11111222,11111222,11111222' 
TABS,ioos:station:wmo:42046:1,2012-03-02T18:00:00Z,27.8903,-94.0367,4.0,6.223519904,161.1577206,7.14,'11111222,11111222,11111222' 
TABS,ioos:station:wmo:42046:1,2012-03-02T18:30:00Z,27.8903,-94.0367,4.0,5.073302672,160.4224011,6.19,'11111222,11111222,11111222' 
TABS,ioos:station:wmo:42046:1,2012-03-02T19:00:00Z,27.8903,-94.0367,4.0,4.430677149,162.2605069,4.99,'11111222,11111222,11111222' 
TABS,ioos:station:wmo:42046:1,2012-03-02T19:30:00Z,27.8903,-94.0367,4.0,4.833963177,159.9158859,5.6,'11111222,11111222,11111222' 
TABS,ioos:station:wmo:42046:1,2012-03-02T20:00:00Z,27.8903,-94.0367,4.0,3.873861123,157.539679,4.65,'11111222,11111222,11111222' 
TABS,ioos:station:wmo:42046:1,2012-03-02T20:30:00Z,27.8903,-94.0367,4.0,4.265501143,158.5480592,4.92,'11111222,11111222,11111222' 
TABS,ioos:station:wmo:42046:1,2012-03-02T21:00:00Z,27.8903,-94.0367,4.0,3.52455671,158.5309094,4.35,'11111222,11111222,11111222' 
TABS,ioos:station:wmo:42046:1,2012-03-02T21:30:00Z,27.8903,-94.0367,4.0,2.263382425,147.0825427,2.71,'11111222,11111222,11111222' 
TABS,ioos:station:wmo:42046:1,2012-03-02T22:00:00Z,27.8903,-94.0367,4.0,2.737754554,128.9216117,3.14,'11111222,11111222,11111222' 
TABS,ioos:station:wmo:42046:1,2012-03-02T22:30:00Z,27.8903,-94.0367,4.0,3.218089495,127.2975381,3.68,'11111222,11111222,11111222' 
TABS,ioos:station:wmo:42046:1,2012-03-02T23:00:00Z,27.8903,-94.0367,4.0,3.877524984,132.9101614,4.44,'11111222,11111222,11111222' 
TABS,ioos:station:wmo:42046:1,2012-03-02T23:30:00Z,27.8903,-94.0367,4.0,4.072259815,142.4831771,5.01,'11111222,11111222,11111222' 
TABS,ioos:station:wmo:42046:1,2012-03-03T00:00:00Z,27.8903,-94.0367,4.0,4.53927307,153.1529791,5.18,'11111222,11111222,11111222' 
TABS,ioos:station:wmo:42046:1,2012-03-03T00:30:00Z,27.8903,-94.0367,4.0,4.561633479,153.1543626,5.6,'11111222,11111222,11111222' 
TABS,ioos:station:wmo:42046:1,2012-03-03T01:00:00Z,27.8903,-94.0367,4.0,4.632116147,155.6484444,5.34,'11111222,11111222,11111222' 
TABS,ioos:station:wmo:42046:1,2012-03-03T01:30:00Z,27.8903,-94.0367,4.0,3.888920159,155.5441197,4.54,'11111222,11111222,11111222' 
TABS,ioos:station:wmo:42046:1,2012-03-03T02:00:00Z,27.8903,-94.0367,4.0,3.522300385,155.6909358,4.25,'11111222,11111222,11111222' 
TABS,ioos:station:wmo:42046:1,2012-03-03T02:30:00Z,27.8903,-94.0367,4.0,3.282986445,154.3718515,3.84,'11111222,11111222,11111222' 
TABS,ioos:station:wmo:42046:1,2012-03-03T03:00:00Z,27.8903,-94.0367,4.0,2.925508503,156.8531065,3.45,'11111222,11111222,11111222' 
TABS,ioos:station:wmo:42046:1,2012-03-03T03:30:00Z,27.8903,-94.0367,4.0,2.94260089,156.5715724,3.72,'11111222,11111222,11111222' 
TABS,ioos:station:wmo:42046:1,2012-03-03T04:00:00Z,27.8903,-94.0367,4.0,2.862725974,164.6046972,3.38,'11111222,11111222,11111222' 
TABS,ioos:station:wmo:42046:1,2012-03-03T04:30:00Z,27.8903,-94.0367,4.0,4.132323801,157.2204147,4.85,'11111222,11111222,11111222' 
TABS,ioos:station:wmo:42046:1,2012-03-03T05:00:00Z,27.8903,-94.0367,4.0,4.209536792,154.8353675,4.81,'11111222,11111222,11111222' 
TABS,ioos:station:wmo:42046:1,2012-03-03T05:30:00Z,27.8903,-94.0367,4.0,4.454357417,153.0325478,5.18,'11111222,11111222,11111222' 
TABS,ioos:station:wmo:42046:1,2012-03-03T06:00:00Z,27.8903,-94.0367,4.0,4.195151964,152.7633416,4.81,'11111222,11111222,11111222' 
TABS,ioos:station:wmo:42046:1,2012-03-03T06:30:00Z,27.8903,-94.0367,4.0,2.998216136,143.8183724,3.55,'11111222,11111222,11111222' 
TABS,ioos:station:wmo:42046:1,2012-03-03T07:00:00Z,27.8903,-94.0367,4.0,2.038676041,122.9888654,2.53,'11111222,11111222,11111222' 
TABS,ioos:station:wmo:42046:1,2012-03-03T07:30:00Z,27.8903,-94.0367,4.0,2.779964029,139.3766558,4.05,'11111222,11111222,11111222' 
TABS,ioos:station:wmo:42046:1,2012-03-03T08:00:00Z,27.8903,-94.0367,4.0,1.860376306,140.2341651,2.74,'11111222,11111222,11111222' 
TABS,ioos:station:wmo:42046:1,2012-03-03T08:30:00Z,27.8903,-94.0367,4.0,1.222006547,93.28427553,1.7,'11111222,11111222,11111222' 
TABS,ioos:station:wmo:42046:1,2012-03-03T09:00:00Z,27.8903,-94.0367,4.0,1.278827588,145.1917937,2.21,'11111222,11111222,11111222' 
TABS,ioos:station:wmo:42046:1,2012-03-03T09:30:00Z,27.8903,-94.0367,4.0,3.403248448,146.8705525,4.02,'11111222,11111222,11111222' 
TABS,ioos:station:wmo:42046:1,2012-03-03T10:00:00Z,27.8903,-94.0367,4.0,3.646272069,162.1119075,4.39,'11111222,11111222,11111222' 
TABS,ioos:station:wmo:42046:1,2012-03-03T10:30:00Z,27.8903,-94.0367,4.0,1.567801008,156.7057017,2.4,'11111222,11111222,11111222' 
TABS,ioos:station:wmo:42046:1,2012-03-03T11:00:00Z,27.8903,-94.0367,4.0,0.924175308,54.24577544,1.23,'11111222,11111222,11111222' 
TABS,ioos:station:wmo:42046:1,2012-03-03T11:30:00Z,27.8903,-94.0367,4.0,1.04560987,77.2924953,1.68,'11111222,11111222,11111222' 
TABS,ioos:station:wmo:42046:1,2012-03-03T12:00:00Z,27.8903,-94.0367,4.0,0.506063237,60.39519756,1.03,'11111222,11111222,11111222' 
TABS,ioos:station:wmo:42046:1,2012-03-03T12:30:00Z,27.8903,-94.0367,4.0,0.702139587,54.27226441,1.19,'11111222,11111222,11111222' 
TABS,ioos:station:wmo:42046:1,2012-03-03T13:00:00Z,27.8903,-94.0367,4.0,0.586685606,29.62346902,1.03,'11111222,11111222,11111222' 
TABS,ioos:station:wmo:42046:1,2012-03-03T13:30:00Z,27.8903,-94.0367,4.0,0.787718224,118.8430136,1.57,'11111222,11111222,11111222' 
TABS,ioos:station:wmo:42046:1,2012-03-03T14:00:00Z,27.8903,-94.0367,4.0,0.283196045,132.1379172,0.63,'11111222,11111222,11111222' 
TABS,ioos:station:wmo:42046:1,2012-03-03T14:30:00Z,27.8903,-94.0367,4.0,5.73482345,343.9034727,13.89,'11111222,11111222,11111222' 
TABS,ioos:station:wmo:42046:1,2012-03-03T15:00:00Z,27.8903,-94.0367,4.0,12.3651486,11.19156038,14.44,'11111222,11111222,11111222' 
TABS,ioos:station:wmo:42046:1,2012-03-03T15:30:00Z,27.8903,-94.0367,4.0,11.80231333,22.67561635,14.17,'11111222,11111222,11111222' 
TABS,ioos:station:wmo:42046:1,2012-03-03T16:00:00Z,27.8903,-94.0367,4.0,11.12268403,31.73208155,12.92,'11111222,11111222,11111222' 
TABS,ioos:station:wmo:42046:1,2012-03-03T16:30:00Z,27.8903,-94.0367,4.0,11.51840267,23.5379677,13.39,'11111222,11111222,11111222' 
TABS,ioos:station:wmo:42046:1,2012-03-03T17:00:00Z,27.8903,-94.0367,4.0,10.20497918,39.27330319,12.4,'11111222,11111222,11111222' 
TABS,ioos:station:wmo:42046:1,2012-03-03T17:30:00Z,27.8903,-94.0367,4.0,11.07960739,16.19376395,13.47,'11111222,11111222,11111222' 
TABS,ioos:station:wmo:42046:1,2012-03-03T18:00:00Z,27.8903,-94.0367,4.0,12.34757061,5.996637394,14.62,'11111222,11111222,11111222' 
TABS,ioos:station:wmo:42046:1,2012-03-03T18:30:00Z,27.8903,-94.0367,4.0,12.08894123,14.76020433,14.17,'11111222,11111222,11111222' 
TABS,ioos:station:wmo:42046:1,2012-03-03T19:00:00Z,27.8903,-94.0367,4.0,11.64312673,8.992861559,13.41,'11111222,11111222,11111222' 
TABS,ioos:station:wmo:42046:1,2012-03-03T19:30:00Z,27.8903,-94.0367,4.0,11.39245803,21.63304395,13.2,'11111222,11111222,11111222' 
TABS,ioos:station:wmo:42046:1,2012-03-03T20:00:00Z,27.8903,-94.0367,4.0,10.98679662,9.376356265,13.09,'11111222,11111222,11111222' 
TABS,ioos:station:wmo:42046:1,2012-03-03T20:30:00Z,27.8903,-94.0367,4.0,11.05995027,5.968107782,13.2,'11111222,11111222,11111222' 
TABS,ioos:station:wmo:42046:1,2012-03-03T21:00:00Z,27.8903,-94.0367,4.0,11.53613887,356.9687363,13.08,'11111222,11111222,11111222' 
TABS,ioos:station:wmo:42046:1,2012-03-03T21:30:00Z,27.8903,-94.0367,4.0,11.64965665,353.2957149,14.41,'11111222,11111222,11111222' 
TABS,ioos:station:wmo:42046:1,2012-03-03T22:00:00Z,27.8903,-94.0367,4.0,11.6822087,350.4407336,13.49,'11111222,11111222,11111222' 
TABS,ioos:station:wmo:42046:1,2012-03-03T22:30:00Z,27.8903,-94.0367,4.0,11.23895013,344.3065245,13.24,'11111222,11111222,11111222' 
TABS,ioos:station:wmo:42046:1,2012-03-03T23:00:00Z,27.8903,-94.0367,4.0,11.2453546,339.5988385,13.09,'11111222,11111222,11111222' 
TABS,ioos:station:wmo:42046:1,2012-03-03T23:30:00Z,27.8903,-94.0367,4.0,11.70904351,339.8160599,13.85,'11111222,11111222,11111222' 
TABS,ioos:station:wmo:42046:1,2012-03-04T00:00:00Z,27.8903,-94.0367,4.0,11.40474024,348.1085719,13.41,'11111222,11111222,11111222' 
TABS,ioos:station:wmo:42046:1,2012-03-04T00:30:00Z,27.8903,-94.0367,4.0,11.67157659,345.308732,13.87,'11111222,11111222,11111222' 
TABS,ioos:station:wmo:42046:1,2012-03-04T01:00:00Z,27.8903,-94.0367,4.0,10.96792597,339.4499065,12.66,'11111222,11111222,11111222' 
TABS,ioos:station:wmo:42046:1,2012-03-04T01:30:00Z,27.8903,-94.0367,4.0,11.25532763,344.0124766,13.45,'11111222,11111222,11111222' 
TABS,ioos:station:wmo:42046:1,2012-03-04T02:00:00Z,27.8903,-94.0367,4.0,12.26123159,348.8548417,14.67,'11111222,11111222,11111222' 
TABS,ioos:station:wmo:42046:1,2012-03-04T02:30:00Z,27.8903,-94.0367,4.0,11.914466,353.5905754,14.28,'11111222,11111222,11111222' 
TABS,ioos:station:wmo:42046:1,2012-03-04T03:00:00Z,27.8903,-94.0367,4.0,11.19785694,355.2871489,13.53,'11111222,11111222,11111222' 
TABS,ioos:station:wmo:42046:1,2012-03-04T03:30:00Z,27.8903,-94.0367,4.0,10.7383658,351.4848736,13.52,'11111222,11111222,11111222' 
TABS,ioos:station:wmo:42046:1,2012-03-04T04:00:00Z,27.8903,-94.0367,4.0,10.97694402,349.1300594,12.7,'11111222,11111222,11111222' 
TABS,ioos:station:wmo:42046:1,2012-03-04T04:30:00Z,27.8903,-94.0367,4.0,10.84126376,342.3336824,12.98,'11111222,11111222,11111222' 
TABS,ioos:station:wmo:42046:1,2012-03-04T05:00:00Z,27.8903,-94.0367,4.0,10.35849893,340.4278676,13.83,'11111222,11111222,11111222' 
TABS,ioos:station:wmo:42046:1,2012-03-04T05:30:00Z,27.8903,-94.0367,4.0,10.64445865,340.1179018,13.28,'11111222,11111222,11111222' 
TABS,ioos:station:wmo:42046:1,2012-03-04T06:00:00Z,27.8903,-94.0367,4.0,10.14401301,339.6355043,13.2,'11111222,11111222,11111222' 
TABS,ioos:station:wmo:42046:1,2012-03-04T06:30:00Z,27.8903,-94.0367,4.0,10.7058909,331.8549617,13.08,'11111222,11111222,11111222' 
TABS,ioos:station:wmo:42046:1,2012-03-04T07:00:00Z,27.8903,-94.0367,4.0,9.538469479,337.3060477,11.55,'11111222,11111222,11111222' 
TABS,ioos:station:wmo:42046:1,2012-03-04T07:30:00Z,27.8903,-94.0367,4.0,9.675458645,342.7447189,12.77,'11111222,11111222,11111222' 
TABS,ioos:station:wmo:42046:1,2012-03-04T08:00:00Z,27.8903,-94.0367,4.0,10.31275909,350.4552863,12.25,'11111222,11111222,11111222' 
TABS,ioos:station:wmo:42046:1,2012-03-04T08:30:00Z,27.8903,-94.0367,4.0,9.72105447,350.2274197,11.64,'11111222,11111222,11111222' 
TABS,ioos:station:wmo:42046:1,2012-03-04T09:00:00Z,27.8903,-94.0367,4.0,9.951708396,347.3461162,12.06,'11111222,11111222,11111222' 
TABS,ioos:station:wmo:42046:1,2012-03-04T09:30:00Z,27.8903,-94.0367,4.0,9.916491315,352.0004433,11.48,'11111222,11111222,11111222' 
TABS,ioos:station:wmo:42046:1,2012-03-04T10:00:00Z,27.8903,-94.0367,4.0,9.481529412,351.2031103,11.45,'11111222,11111222,11111222' 
TABS,ioos:station:wmo:42046:1,2012-03-04T10:30:00Z,27.8903,-94.0367,4.0,8.616263691,344.9313366,10.15,'11111222,11111222,11111222' 
TABS,ioos:station:wmo:42046:1,2012-03-04T11:00:00Z,27.8903,-94.0367,4.0,8.184259282,354.0384341,9.63,'11111222,11111222,11111222' 
TABS,ioos:station:wmo:42046:1,2012-03-04T11:30:00Z,27.8903,-94.0367,4.0,8.501152863,359.0561819,10.19,'11111222,11144222,11111222' 
TABS,ioos:station:wmo:42046:1,2012-03-04T12:00:00Z,27.8903,-94.0367,4.0,8.222682044,358.5363505,9.85,'11111222,11111222,11111222' 
TABS,ioos:station:wmo:42046:1,2012-03-04T12:30:00Z,27.8903,-94.0367,4.0,8.090339919,4.963383554,9.93,'11111222,11111222,11111222' 
TABS,ioos:station:wmo:42046:1,2012-03-04T13:00:00Z,27.8903,-94.0367,4.0,7.333928006,358.1244766,8.98,'11111222,11111222,11111222' 
TABS,ioos:station:wmo:42046:1,2012-03-04T13:30:00Z,27.8903,-94.0367,4.0,6.690478309,359.3146725,9.63,'11111222,11144222,11111222' 
TABS,ioos:station:wmo:42046:1,2012-03-04T14:00:00Z,27.8903,-94.0367,4.0,7.076298467,356.1103205,8.73,'11111222,11111222,11111222' 
TABS,ioos:station:wmo:42046:1,2012-03-04T14:30:00Z,27.8903,-94.0367,4.0,6.698119139,351.2406408,8.19,'11111222,11111222,11111222' 
TABS,ioos:station:wmo:42046:1,2012-03-04T15:00:00Z,27.8903,-94.0367,4.0,5.851034097,1.077016614,7.55,'11111222,11111222,11111222' 
TABS,ioos:station:wmo:42046:1,2012-03-04T15:30:00Z,27.8903,-94.0367,4.0,5.622188186,3.773181792,7.41,'11111222,11111222,11111222' 
TABS,ioos:station:wmo:42046:1,2012-03-04T16:00:00Z,27.8903,-94.0367,4.0,5.213866128,355.8202294,6.75,'11111222,11111222,11111222' 
TABS,ioos:station:wmo:42046:1,2012-03-04T16:30:00Z,27.8903,-94.0367,4.0,4.065525796,11.06094614,5.39,'11111222,11111222,11111222' 
TABS,ioos:station:wmo:42046:1,2012-03-04T17:00:00Z,27.8903,-94.0367,4.0,3.777009399,3.490952807,5.28,'11111222,11111222,11111222' 
TABS,ioos:station:wmo:42046:1,2012-03-04T17:30:00Z,27.8903,-94.0367,4.0,3.311087435,19.03663309,4.29,'11111222,11111222,11111222' 
TABS,ioos:station:wmo:42046:1,2012-03-04T18:00:00Z,27.8903,-94.0367,4.0,2.96664794,346.9472995,4.72,'11111222,11111222,11111222' 
TABS,ioos:station:wmo:42046:1,2012-03-04T18:30:00Z,27.8903,-94.0367,4.0,2.820780034,341.8218133,4.0,'11111222,11111222,11111222' 